Location: *
(45.4590°N, 16.3650°E)
Time: 18:48:39
(UTC+00:00)

SL-16 R/B - Pass Details

Date: 17 January 2020
Orbit: 842 x 848 km, 71.0° (Epoch: 27 February)

Event Time Altitude Azimuth Distance (km) Brightness Sun altitude
Rises 19:00:52 0° 332° (NNW) 3,418 5.8 -34.8°
Reaches altitude 10° 19:03:20 10° 330° (NNW) 2,478 5.0 -35.3°
Enters shadow 19:05:44 26° 327° (NNW) 1,607 3.9 -35.7°
